Location: Ward Pound Ridge Reservation
(41.2500°N, 73.6000°W)
Time: 21:36:16
(UTC-04:00)

Envisat - Pass Details

Date: 16 October 2017
Orbit: 764 x 766 km, 98.2° (Epoch: 18 October)

Event Time Altitude Azimuth Distance (km) Brightness Sun altitude
Exits shadow 19:06:03 12° 64° (ENE) 2,162 4.8 -11.0°
Maximum altitude 19:06:27 12° 59° (ENE) 2,156 4.8 -11.1°
Drops below altitude 10° 19:08:23 10° 37° (NE) 2,308 5.1 -11.4°
Sets 19:12:09 0° 8° (N) 3,240 6.1 -12.1°
